[[{"header":{"parameterUnit":"m.s-1","parameterCategory":1,"la1":30.2992,"la2":30.254,"lo1":-89.0895,"lo2":-89.0443,"dy":0.0025,"dx":0.0025,"nx":19,"ny":19,"refTime":"2026-05-19T03:00:00:Z","depth":0,"parameterNumber":2,"parameterNumberName":"U-component_of_WINDS"},"data":[0,0,0,-4.5759,-4.5762,-4.5895,-4.5895,-4.6071,-4.6073,0,0,0,0,0,0,0,0,0,0,0,-4.5725,-4.5726,-4.5759,-4.5762,-4.5895,-4.5895,-4.6071,-4.6073,0,0,0,0,0,0,0,0,0,0,0,-4.5724,-4.5726,-4.5727,-4.5763,-4.5894,-4.5895,-4.607,-4.5968,0,0,0,0,0,0,0,0,0,0,-4.5838,-4.5811,-4.5725,-4.5727,-4.5764,-4.5894,-4.5895,-4.5963,-4.5974,-4.6014,0,-4.6052,0,-4.6065,-4.6085,-4.6085,0,0,0,-4.5758,-4.5801,-4.5833,-4.5728,-4.5765,-4.5894,-4.5834,-4.5969,-4.5982,-4.6029,-4.6054,-4.606,-4.6068,-4.6086,-4.6087,-4.6333,-4.6334,0,0,-4.5751,-4.5751,-4.5824,-4.5842,-4.5823,-4.583,-4.5838,-4.5977,-4.6003,-4.6055,-4.6064,-4.6071,-4.6087,-4.6089,-4.6332,-4.6333,0,0,0,-4.5733,-4.5746,-4.5774,-4.5835,-4.5858,-4.5834,-4.5843,-4.5997,-4.6006,-4.6066,-4.6073,-4.6088,-4.6091,-4.633,-4.6332,-4.6397,0,0,0,-4.5728,-4.5735,-4.5771,-4.5772,-4.5856,-4.5929,-4.586,-4.5997,-4.6012,-4.6072,-4.6088,-4.6092,-4.6329,-4.6331,-4.6392,-4.6427,0,0,0,-4.5714,-4.5733,-4.5754,-4.5771,-4.5829,-4.5927,-4.5944,-4.6,-4.6017,-4.6086,-4.6093,-4.6328,-4.6331,-4.6388,-4.642,-4.6491,0,0,0,-4.5699,-4.5809,-4.5755,-4.5881,-4.5828,-4.5968,-4.5943,-4.6047,-4.6114,-4.6089,-4.6329,-4.6332,-4.6387,-4.6415,-4.6486,-4.6549,-4.6576,0,0,-4.5837,-4.5826,-4.59,-4.5856,-4.6005,-4.5947,-4.6106,-4.6167,-4.6174,-4.6279,-4.6286,-4.6394,-4.6419,-4.649,-4.6731,-4.6752,0,0,0,-4.5944,-4.5997,-4.6037,-4.6101,-4.6152,-4.6198,-4.6236,-4.6259,-4.6349,-4.6229,-4.644,-4.6455,-4.6497,-4.6526,-4.6545,-4.658,-4.6347,-4.6346,-4.6346,-4.6136,-4.6141,-4.6264,-4.6285,-4.6349,-4.6388,-4.6439,-4.6477,-4.6461,-4.6512,-4.6542,-4.6687,-4.6723,-4.6736,-4.6773,-4.6578,-4.6578,-4.6578,-4.6578,-4.6338,-4.6413,-4.6394,-4.6506,-4.651,-4.6604,-4.6647,-4.6634,-4.6721,-4.6664,-4.6701,-4.6636,-4.6759,-4.6791,-4.6583,-4.6582,-4.6582,-4.6581,-4.6581,-4.6462,-4.6499,-4.6527,-4.6623,-4.6696,-4.6714,-4.68,-4.6801,-4.6802,-4.6839,-4.6871,-4.687,-4.6867,-4.6855,-4.6855,-4.6856,-4.6856,-4.6857,-4.6857,-4.6578,-4.6609,-4.6681,-4.6747,-4.679,-4.6846,-4.6889,-4.6931,-4.6977,-4.6971,-4.6971,-4.695,-4.6772,-4.6726,-4.6865,-4.6863,-4.6862,-4.6862,-4.6861,-4.6776,-4.6733,-4.6845,-4.6888,-4.6966,-4.7038,-4.7041,-4.7126,-4.7161,-4.7203,-4.7177,-4.7046,-4.7033,-4.7018,-4.698,-4.7176,-4.7176,-4.7176,-4.7176,-4.6879,-4.6875,-4.699,-4.7059,-4.7127,-4.7141,-4.7267,-4.7303,-4.7332,-4.7354,-4.7327,-4.7277,-4.7263,-4.7258,-4.7239,-4.7203,-4.7452,-4.7452,-4.7452,-4.7,-4.7003,-4.7109,-4.714,-4.7202,-4.7255,-4.7374,-4.7453,-4.7478,-4.7463,-4.7371,-4.736,-4.7279,-4.7253,-4.7232,-4.7202,-4.7136,0,0]},{"header":{"parameterUnit":"m.s-1","parameterCategory":1,"la1":30.2992,"la2":30.254,"lo1":-89.0895,"lo2":-89.0443,"dy":0.0025,"dx":0.0025,"nx":19,"ny":19,"refTime":"2026-05-19T03:00:00:Z","depth":0,"parameterNumber":3,"parameterNumberName":"V-component_of_WINDS"},"data":[0,0,0,2.0336,2.0337,2.0371,2.0372,2.0416,2.0416,0,0,0,0,0,0,0,0,0,0,0,2.0326,2.0326,2.0336,2.0337,2.0371,2.0372,2.0416,2.0416,0,0,0,0,0,0,0,0,0,0,0,2.0326,2.0326,2.0326,2.0337,2.0371,2.0372,2.0415,2.0389,0,0,0,0,0,0,0,0,0,0,2.0356,2.0346,2.0326,2.0326,2.0337,2.0371,2.0372,2.0388,2.0391,2.04,0,2.0408,0,2.0413,2.0419,2.0419,0,0,0,2.0336,2.0344,2.0353,2.0327,2.0338,2.0371,2.0356,2.039,2.0393,2.0404,2.0409,2.0411,2.0414,2.0419,2.042,2.0477,2.0477,0,0,2.0334,2.0332,2.0351,2.0356,2.0351,2.0355,2.0357,2.0392,2.0397,2.0409,2.0412,2.0415,2.042,2.042,2.0476,2.0477,0,0,0,2.0329,2.033,2.0339,2.0354,2.036,2.0356,2.0358,2.0395,2.0398,2.0412,2.0415,2.042,2.042,2.0476,2.0477,2.0489,0,0,0,2.0328,2.0327,2.0338,2.0337,2.036,2.0378,2.0361,2.0396,2.04,2.0415,2.042,2.0421,2.0476,2.0476,2.0488,2.0495,0,0,0,2.0323,2.0327,2.0332,2.0337,2.0352,2.0378,2.0383,2.0397,2.0402,2.0419,2.0421,2.0476,2.0476,2.0487,2.0494,2.0511,0,0,0,2.0317,2.0341,2.0332,2.036,2.0351,2.0386,2.0383,2.0408,2.0424,2.042,2.0476,2.0477,2.0487,2.0493,2.051,2.0525,2.0531,0,0,2.0345,2.0344,2.036,2.0354,2.0389,2.0381,2.0418,2.0434,2.0438,2.0463,2.0465,2.0489,2.0494,2.0511,2.0565,2.057,0,0,0,2.0368,2.038,2.039,2.0407,2.0422,2.0436,2.0448,2.0455,2.0477,2.0451,2.0499,2.0502,2.0512,2.052,2.0524,2.0533,2.048,2.048,2.048,2.0402,2.0408,2.0437,2.0447,2.0464,2.0478,2.0492,2.0503,2.0501,2.0513,2.0521,2.0553,2.0562,2.0565,2.0575,2.0529,2.0529,2.0529,2.0529,2.0444,2.0462,2.0464,2.0492,2.0499,2.0522,2.0537,2.0536,2.0559,2.0547,2.0556,2.0543,2.057,2.0579,2.053,2.053,2.053,2.053,2.053,2.0467,2.0477,2.0487,2.0514,2.0535,2.0545,2.0568,2.0572,2.0576,2.0585,2.0594,2.0594,2.0595,2.0589,2.0589,2.0589,2.059,2.059,2.059,2.0487,2.0498,2.0517,2.0538,2.0552,2.0569,2.0586,2.0599,2.0614,2.0615,2.0615,2.0614,2.0572,2.0561,2.0591,2.0591,2.0591,2.0591,2.0591,2.0527,2.052,2.055,2.0564,2.059,2.0612,2.0618,2.0645,2.0656,2.0667,2.0665,2.0633,2.0631,2.0628,2.062,2.0663,2.0663,2.0663,2.0663,2.0546,2.0547,2.0581,2.0603,2.0625,2.0635,2.0671,2.0685,2.0698,2.0706,2.07,2.069,2.0686,2.0686,2.0682,2.0674,2.073,2.0731,2.0731,2.0572,2.0576,2.0605,2.062,2.0642,2.0662,2.0696,2.0721,2.0734,2.0733,2.0712,2.071,2.0692,2.0686,2.0683,2.0676,2.0662,0,0]}]]